Location: Stanford
(52.2833°N, 2.4333°W)
Time: 01:26:13
(UTC+00:00)

Cosmos 2278 Rocket - Pass Details

Date: 22 January 2021
Orbit: 840 x 847 km, 71.0° (Epoch: 28 February)

Event Time Altitude Azimuth Distance (km) Brightness Sun altitude
Rises 19:32:34 0° 187° (S) 3,390 5.4 -26.1°
Reaches altitude 10° 19:35:05 10° 181° (S) 2,460 4.6 -26.5°
Enters shadow 19:36:41 19° 174° (S) 1,911 3.9 -26.7°
